#timestamp,LO_Frequency,Hit,StdDev 
1660230015.7,286047000.5,N
1660230035.5,286047001.1,N
1660230055.4,286047001.0,N
1660230075.2,286047002.7,N
1660230095.1,286046999.7,N
1660230096.0,286046999.7,N
1660230115.8,286047002.7,N
1660230135.6,286047002.7,N
1660230155.5,286046999.8,N
1660230175.3,286047002.4,N
1660230195.1,286047000.2,N
1660230215.9,286047000.0,N
1660230235.7,286047000.0,N
1660230255.6,286047000.3,N
1660230275.4,286047000.0,N
1660230295.2,286046999.9,N
1660230315.1,286047000.4,N
1660230316.0,286047000.4,N
1660230335.8,286047001.1,N
1660230355.6,286047000.1,N
1660230375.5,286047000.4,N
1660230395.3,286047000.0,N
1660230415.2,286047002.8,N
1660230435.9,286047001.0,N
1660230455.7,286047001.0,N
1660230475.6,286047001.1,N
1660230495.4,286047002.8,N
1660230515.2,286047000.2,N
1660230535.1,286046999.9,N
1660230536.0,286046999.9,N
1660230555.8,286047000.0,N
1660230575.7,286047000.2,N
1660230595.5,286047002.5,N
1660230615.4,286046999.7,N
1660230635.2,286047002.4,N
1660230655.0,286047000.2,N
1660230655.9,286047000.2,N
1660230675.8,286047000.7,N
1660230695.6,286046998.7,N
1660230715.4,286046999.1,N
1660230735.3,286046999.2,N
1660230755.1,286046999.4,N
1660230775.9,286046999.1,N
1660230795.7,286046998.5,N
1660230815.5,286046998.6,N
1660230835.4,286046996.5,Y
1660230855.2,286046998.9,P
1660230875.0,286046999.4,N
1660230875.9,286046999.4,N
1660230895.8,286046999.1,N
1660230915.6,286046999.6,N
1660230935.5,286046996.9,Y
1660230955.3,286046999.2,P
1660230975.1,286046999.6,P
1660230995.9,286046998.3,P
1660231015.7,286046998.8,N
1660231035.6,286046998.6,Y
1660231055.4,286047000.4,P
1660231075.2,286047000.5,N
1660231095.1,286046999.8,N
1660231096.0,286046999.8,N
1660231115.8,286047000.9,N
1660231135.6,286046999.8,N
1660231155.5,286046999.7,N
1660231175.3,286047000.6,N
1660231195.2,286047000.8,N
1660231215.9,286046998.6,N
1660231235.7,286046998.2,N
1660231255.6,286046998.5,N
1660231275.4,286047001.1,N
1660231295.2,286046998.6,N
1660231315.1,286047000.7,N
1660231316.0,286047000.7,N
1660231335.8,286047000.3,N
1660231355.7,286047000.9,N
1660231375.5,286046999.8,N
1660231395.3,286047000.0,N
1660231415.2,286047000.2,N
1660231435.0,286047000.7,N
1660231435.9,286047000.7,N
1660231455.8,286047000.9,N
1660231475.6,286047001.2,N
1660231495.2,286046998.6,N
1660231515.9,286046999.1,N
1660231535.7,286046999.6,N
1660231555.6,286047001.0,N
1660231575.4,286047000.4,N
1660231595.3,286047000.2,N
1660231615.1,286047002.8,Y
1660231616.0,286047002.8,P
1660231635.8,286047000.7,N
1660231655.7,286046998.8,N
1660231675.5,286046999.3,N
1660231695.3,286046998.4,N
1660231715.2,286047000.3,N
1660231735.0,286047002.3,N
1660231735.9,286047002.3,N
1660231755.8,286047002.6,N
1660231775.6,286047002.1,N
1660231795.4,286047002.1,N
1660231815.3,286047004.1,N
1660231835.1,286047003.2,N
1660231855.8,286047003.8,N
1660231875.7,286047003.8,N
1660231895.5,286047003.5,N
1660231915.4,286047003.8,N
1660231935.2,286047004.0,N
1660231955.0,286047002.1,N
1660231955.9,286047002.1,N
1660231975.8,286047001.5,N
1660231995.6,286047002.3,N
1660232015.5,286047002.7,N
1660232035.6,286047002.7,N
1660232055.5,286047001.4,N
1660232075.3,286047004.3,N
1660232095.2,286047001.4,N
1660232115.9,286047001.5,N
1660232135.7,286047002.2,N
1660232155.6,286047002.4,N
1660232175.4,286047000.6,N
1660232195.2,286046998.6,N
1660232215.1,286046999.5,N
1660232216.0,286046999.5,N
1660232235.8,286046999.1,N
1660232255.7,286046997.0,N
1660232275.5,286046999.2,N
1660232295.3,286046999.2,N
1660232315.2,286046999.4,N
1660232335.0,286046996.6,N
1660232335.9,286046996.6,N
1660232355.8,286046997.6,N
1660232375.6,286046995.3,N
1660232395.4,286046997.6,N
1660232415.3,286046995.2,N
1660232435.1,286046997.6,N
1660232455.8,286046997.2,N
1660232475.7,286046997.0,N
1660232495.5,286046999.2,N
1660232515.4,286046998.5,N
1660232535.2,286046998.5,N
1660232555.0,286046998.1,N
1660232555.9,286046998.1,N
1660232575.8,286047000.7,N
1660232595.6,286047001.1,N
1660232615.4,286046998.3,N
1660232635.3,286047000.8,N
1660232655.1,286047000.9,N
1660232675.9,286047000.4,N
1660232695.7,286047000.6,N
1660232715.5,286046998.4,N
1660232735.4,286046996.6,N
1660232755.2,286046997.1,N
1660232775.0,286046997.7,N
1660232776.0,286046997.7,N
1660232795.8,286046997.7,N
1660232815.6,286046997.5,N
1660232835.5,286046997.8,N
1660232855.3,286046997.2,N
1660232875.1,286046997.8,N
1660232895.9,286046997.4,N
1660232915.7,286046995.2,Y
1660232935.6,286046999.3,P
1660232955.4,286046998.1,P
1660232975.2,286046998.9,N
1660232995.1,286046998.5,Y
1660232996.0,286046998.5,P
1660233015.8,286046999.7,P
1660233035.7,286046999.7,N
1660233055.5,286047002.4,Y
1660233075.3,286047001.3,P
1660233095.2,286047003.8,P
1660233115.0,286047001.4,N
1660233115.9,286047001.4,N
1660233135.8,286047002.6,N
1660233155.6,286046999.9,N
1660233175.4,286047002.8,N
1660233195.3,286047002.5,N
1660233215.1,286047000.4,N
1660233235.8,286047000.9,N
1660233255.7,286046998.6,N
1660233275.5,286046999.8,N
1660233295.4,286047000.1,N
1660233315.2,286047002.4,N
1660233335.0,286047002.3,N
1660233335.9,286047002.3,N
1660233355.8,286047000.0,N
1660233375.6,286047000.7,N
1660233395.4,286047000.1,N
1660233415.3,286046999.7,N
1660233435.1,286047000.0,N
1660233455.9,286047000.6,N
1660233475.7,286046998.3,N
1660233495.5,286046998.4,N
1660233515.4,286046998.2,N
1660233535.2,286046999.9,N
1660233555.0,286047001.8,N
1660233555.9,286047001.8,N
1660233575.8,286047003.1,N
1660233595.6,286047003.0,N
